TRANSIT 11 DEB, 11991

Orbit data source: Space-Track

TRANSIT 11 DEB, 11991 is space debris in LEO originally from a launch on Fri, 28 Jan 1966 UTC launched from the Air Force Western Test Range (AFWTR). Debris objects in space refer to the collection of defunct objects orbiting the Earth. Examples of debris include non-operational satellites, rocket bodies, and fragments generated from explosions, collisions, or faulty payload assembly.

Loading next visibility...
Identifier
11991, 1966-005H
Orbit
LEO
Country
Flag of USUS
Related business
Manufacturer
Unknown
Mission
Spacecraft
Bus & Motor
Unknown
Mass
Unknown
Launch date (UTC)
1966-01-28 (60 years ago)
Launch vehicle
Unknown
Launch site
Air Force Western Test Range (AFWTR)
Object type
Payload
Rocket body
Debris
Shape & HBR
Unknown shape, 0.2 m
Radar Cross Section
Medium (>0.1 m² and <1 m²)

Expand to show TLE details & history
Last TLE update: 7 hours ago

TLE from 7 hours ago
0 TRANSIT 11 DEB
1 11991U 66005H   26038.28643560  .00001519  00000-0  11900-2 0  9990
2 11991  90.1668 340.2261 0176321  20.4085 132.0129 13.84683116  3428
Epoch: 2026-02-07T06:52Z
TLE epoch observation values (Epoch: 2026-02-07T06:52:28.035Z)
Latitude
26.12998°
Longitude
-80.22145°
Altitude
1,038.298 km
Speed
7.291 km/s
True Right ascension
10h 41m 13s
True Declination
25° 59' 58"
Sunlit
Object was in full shadow at epoch
Visualization orbit readout
Latitude
Unknown
Longitude
Unknown
Altitude
Unknown
Speed
Unknown
Apparent Right ascension
Unknown
Apparent Declination
Unknown
Sunlit
N/A
Visualization observer readout
Local Sidereal Time
16:21:45
Azimuth
Unknown
Elevation
Unknown
Doppler factor
Unknown
Orbital elements
Apogee altitude
1,073.431 km
Perigee altitude
815.211 km
Semi-major axis
7,322.458 km
Eccentricity
0.01763
Inclination
90.1668°
RAAN
340.2261°
Arg. of periapsis
20.4085°
True anomaly
133.49211°
Mean anomaly
132.0129°
Eccentric anomaly
132.75469°
Mean motion
3.46384 °/min
Orbital period
103.93 mins
BSTAR
0.00119
Loading maneuver chart data...
Computing Atmospheric mass density...
Loading historical data...
Loading historical data...
Loading historical data...
Loading historical data...
Loading historical data...
Loading historical data...
Loading historical data...

Documentation

Showing up to 5 results
|